Showing default

CENTISPACE-2 S8, 68357

Orbit data source: Space-Track

CENTISPACE-2 S8, 68357 is a payload satellite owned by Centispace (CN) in LEO that was launched on Sun, 22 Mar 2026 UTC via a JIELONG-3 launch vehicle from the Yellow Sea Launch Area, China (YSLA). Payload-class satellites include a variety of spacecraft equipped with specific instruments for various scientific and technological missions. These include communications satellites like Starlink; space stations such as the ISS; scientific satellites like the Hubble; Earth observation satellites from companies like Planet Labs, Umbra, and HawkEye 360; GPS; miniature CubeSats for education and research; and military/defense satellites.

Loading next visibility...
Identifier
68357, 2026-060H
Orbit
LEO
Country
Flag of CNCN / PRC
Related business
Manufacturer
DFH Shenzhen
Mission
Operational spacecraft
Bus & Motor
WK01, Unknown motor
Mass
140 kg wet, 140 kg dry
Launch date (UTC)
2026-03-22 (3 months ago)
Launch vehicle
JIELONG-3
Launch site
Yellow Sea Launch Area, China (YSLA)
Object type
Payload
Rocket body
Debris
Shape & HBR
Unknown shape, 1.1 m
Radar Cross Section
Large (>1 m²)

Expand to show TLE details & history
Last TLE update: 13 hours ago

TLE from 13 hours ago
0 CENTISPACE-2 S8
1 68357U 26060H   26171.31314565  .00000544  00000-0  13592-3 0  9994
2 68357  54.9863  24.4032 0012045 307.6046  52.3855 14.65174012 13215
Epoch: 2026-06-20T07:30Z
TLE epoch observation values (Epoch: 2026-06-20T07:30:55.784Z)
Latitude
0.00001°
Longitude
3.14121°
Altitude
672.4 km
Speed
7.524 km/s
True Right ascension
01h 37m 36s
True Declination
0° 00' 00"
Sunlit
Object was in daylight at epoch
Visualization orbit readout
Latitude
Unknown
Longitude
Unknown
Altitude
Unknown
Speed
Unknown
Apparent Right ascension
Unknown
Apparent Declination
Unknown
Sunlit
N/A
Visualization observer readout
Local Sidereal Time
07:21:52
Azimuth
Unknown
Elevation
Unknown
Doppler factor
Unknown
Orbital elements
Apogee altitude
684.98 km
Perigee altitude
667.985 km
Semi-major axis
7,054.62 km
Eccentricity
0.0012
Inclination
54.9863°
RAAN
24.4032°
Arg. of periapsis
307.6046°
True anomaly
52.49494°
Mean anomaly
52.3855°
Eccentric anomaly
52.44021°
Mean motion
3.66297 °/min
Orbital period
98.28 mins
BSTAR
0.00013592
Loading maneuver chart data...
Computing Atmospheric mass density...
Loading historical data...
Loading historical data...
Loading historical data...
Loading historical data...
Loading historical data...
Loading historical data...
Loading historical data...

Documentation

Showing up to 5 results
|